TimeMST,TemperatureF,Dew PointF,Humidity,Sea Level PressureIn,VisibilityMPH,Wind Direction,Wind SpeedMPH,Gust SpeedMPH,PrecipitationIn,Events,Conditions,WindDirDegrees,DateUTC
1:56 AM,44.6,33.8,66,29.92,10.0,South,4.6,-,N/A,,Clear,180,2013-02-06 08:56:00
2:55 AM,44.6,33.8,66,29.92,10.0,SW,3.5,-,N/A,,Clear,220,2013-02-06 09:55:00
3:55 AM,44.6,33.8,66,29.91,10.0,NW,3.5,-,N/A,,Partly Cloudy,320,2013-02-06 10:55:00
4:55 AM,42.8,33.8,70,29.91,10.0,Variable,3.5,-,N/A,,Scattered Clouds,0,2013-02-06 11:55:00
5:55 AM,44.6,33.8,66,29.91,10.0,East,4.6,-,N/A,,Mostly Cloudy,100,2013-02-06 12:55:00
6:55 AM,41.0,33.8,76,29.94,10.0,South,5.8,-,N/A,,Mostly Cloudy,170,2013-02-06 13:55:00
7:55 AM,44.6,33.8,66,29.96,10.0,Variable,2.3,-,N/A,,Mostly Cloudy,0,2013-02-06 14:55:00
8:55 AM,50.0,35.6,58,29.94,10.0,Variable,2.3,-,N/A,,Mostly Cloudy,0,2013-02-06 15:55:00
9:55 AM,51.8,33.8,50,29.96,10.0,Variable,2.3,-,N/A,,Mostly Cloudy,0,2013-02-06 16:55:00
10:55 AM,55.4,30.2,38,29.96,10.0,Variable,3.5,-,N/A,,Mostly Cloudy,0,2013-02-06 17:55:00
11:55 AM,57.2,28.4,33,29.93,10.0,Variable,5.8,-,N/A,,Mostly Cloudy,0,2013-02-06 18:55:00
12:55 PM,62.6,26.6,26,29.91,10.0,West,16.1,20.7,N/A,,Mostly Cloudy,270,2013-02-06 19:55:00
1:55 PM,62.6,28.4,27,29.89,10.0,WSW,12.7,18.4,N/A,,Mostly Cloudy,240,2013-02-06 20:55:00
2:55 PM,62.6,30.2,30,29.89,10.0,West,19.6,24.2,N/A,,Mostly Cloudy,270,2013-02-06 21:55:00
3:55 PM,60.8,32.0,34,29.90,10.0,WSW,11.5,-,N/A,,Mostly Cloudy,250,2013-02-06 22:55:00
4:55 PM,60.8,30.2,31,29.91,10.0,West,17.3,-,N/A,,Scattered Clouds,280,2013-02-06 23:55:00
5:55 PM,55.4,30.2,38,29.95,10.0,West,11.5,-,N/A,,Scattered Clouds,260,2013-02-07 00:55:00
6:55 PM,53.6,30.2,41,29.98,10.0,WSW,10.4,-,N/A,,Partly Cloudy,240,2013-02-07 01:55:00
7:55 PM,51.8,33.8,50,30.00,10.0,WSW,8.1,-,N/A,,Partly Cloudy,240,2013-02-07 02:55:00
8:55 PM,48.2,33.8,58,30.01,10.0,WNW,9.2,-,N/A,,Mostly Cloudy,300,2013-02-07 03:55:00
9:55 PM,46.4,33.8,62,30.02,10.0,West,10.4,-,N/A,,Partly Cloudy,260,2013-02-07 04:55:00
10:55 PM,46.4,33.8,62,30.03,10.0,WSW,8.1,-,N/A,,Partly Cloudy,250,2013-02-07 05:55:00
11:55 PM,46.4,33.8,62,30.03,10.0,SW,8.1,-,N/A,,Partly Cloudy,230,2013-02-07 06:55:00